Weather reports worldwide

Advertisment
Altnaharra, United Kingdom (3044): temperature & dewpoint: 10.11.2018 10:00:00 - 16.11.2018 10:00:00 (GMT)Altnaharra, United Kingdom (3044): temperature -20cm & temperature -100cm: 10.11.2018 10:00:00 - 16.11.2018 10:00:00 (GMT)Altnaharra, United Kingdom (3044): wind speed & gusts: 10.11.2018 10:00:00 - 16.11.2018 10:00:00 (GMT)Altnaharra, United Kingdom (3044): wind direction: 10.11.2018 10:00:00 - 16.11.2018 10:00:00 (GMT)Altnaharra, United Kingdom (3044): reduced air pressure: 10.11.2018 10:00:00 - 16.11.2018 10:00:00 (GMT)Altnaharra, United Kingdom (3044): visibility: 10.11.2018 10:00:00 - 16.11.2018 10:00:00 (GMT)Altnaharra, United Kingdom (3044): sunshine duration: 10.11.2018 10:00:00 - 16.11.2018 10:00:00 (GMT)Altnaharra, United Kingdom (3044): precipitation: 10.11.2018 10:00:00 - 16.11.2018 10:00:00 (GMT)
Date & Time tt [°C] td [°C] tt -20cm [°C] tt -100cm [°C] ff [km/h] ff [kn] fx [km/h] fx [kn] dd ppp [hPa] vv [km] sd [min] rr [mm]
16.11.2018 10:00:00 5,9 4,4 - - 11 6 - - NNW 1022,1 35 24 0,0
16.11.2018 09:00:00 3,7 2,4 8,2 8,7 8 4 - - NW 1021,8 35 0 0,0
16.11.2018 08:00:00 3,0 2,2 - - 11 6 - - N 1021,2 45 0 0,0
16.11.2018 07:00:00 3,8 2,4 - - 4 2 - - N 1020,5 45 0 0,0
16.11.2018 06:00:00 2,8 1,4 - - 4 2 - - E 1019,4 45 0 0,0
16.11.2018 05:00:00 4,8 2,3 - - 5 3 - - NNW 1018,7 45 0 0,0
16.11.2018 04:00:00 6,7 4,3 - - 5 3 - - WSW 1017,9 45 0 0,0
16.11.2018 03:00:00 7,7 4,5 - - 8 4 - - SSW 1016,9 50 0 0,0
16.11.2018 02:00:00 8,0 4,9 - - 11 6 - - SE 1016,2 45 0 0,0
16.11.2018 01:00:00 7,4 5,1 - - 5 3 - - SSW 1015,1 50 0 0,0
16.11.2018 00:00:00 7,2 4,5 - - 11 6 - - S 1014,5 50 - 0,0
15.11.2018 23:00:00 7,2 4,3 - - 11 6 - - SSE 1012,9 50 0 0,0
15.11.2018 22:00:00 8,7 4,9 - - 9 5 - - S 1011,7 50 0 0,0
15.11.2018 21:00:00 9,3 5,8 - - 22 12 - - S 1009,5 50 0 0,0
15.11.2018 20:00:00 9,2 6,8 - - 18 10 - - S 1009,4 40 0 0,0
15.11.2018 19:00:00 9,4 7,9 - - 15 8 - - S 1008,6 26 0 0,8
15.11.2018 18:00:00 11,3 7,5 - - 29 16 54 29 SSE 1006,8 18 0 0,0
15.11.2018 17:00:00 13,3 5,7 - - 34 18 55 30 SE 1005,0 50 0 0,0
15.11.2018 16:00:00 13,6 4,6 - - 37 20 72 39 SE 1005,0 50 12 0,0
15.11.2018 15:00:00 14,3 6,8 - - 44 24 74 40 SE 1004,2 35 60 0,0
15.11.2018 14:00:00 15,0 8,2 - - 42 23 70 38 SE 1004,8 45 60 0,0
15.11.2018 13:00:00 15,0 8,9 - - 44 24 67 36 SE 1005,3 45 60 0,0
15.11.2018 12:00:00 15,0 9,5 - - 35 19 57 31 SE 1006,4 28 60 0,0
15.11.2018 11:00:00 13,9 9,9 - - 22 12 - - SE 1007,3 35 12 0,0
15.11.2018 10:00:00 13,1 10,6 - - 9 5 - - SE 1008,2 50 0 0,0
15.11.2018 09:00:00 11,2 9,4 8,2 8,7 2 1 - - N 1009,0 50 0 0,0
15.11.2018 08:00:00 11,0 9,5 - - 8 4 - - E 1009,0 50 0 0,0
15.11.2018 07:00:00 11,5 9,2 - - 11 6 - - S 1008,8 40 0 0,0
15.11.2018 06:00:00 10,7 8,9 - - 9 5 - - SE 1009,0 50 0 0,0
15.11.2018 05:00:00 10,9 9,4 - - 9 5 - - S 1008,7 50 0 0,2
15.11.2018 04:00:00 11,6 10,2 - - 8 4 - - WSW 1007,8 8 0 0,0
15.11.2018 03:00:00 13,7 10,8 - - 16 9 - - SSE 1006,5 15 0 0,0
15.11.2018 02:00:00 14,5 10,3 - - 22 12 - - SE 1005,8 50 0 0,0
15.11.2018 01:00:00 13,8 10,3 - - 22 12 - - SSE 1005,3 50 0 0,0
15.11.2018 00:00:00 13,8 10,5 - - 11 6 - - S 1005,3 35 - 0,0
14.11.2018 23:00:00 14,2 10,2 - - 22 12 - - SSE 1004,7 50 0 0,0
14.11.2018 22:00:00 15,0 10,0 - - 8 4 - - S 1004,8 50 0 0,0
14.11.2018 21:00:00 15,2 10,2 - - 22 12 - - SSE 1004,5 50 0 0,0
14.11.2018 20:00:00 14,5 11,0 - - 24 13 - - SSE 1004,3 50 0 0,0
14.11.2018 19:00:00 14,4 11,5 - - 18 10 - - SSE 1004,1 50 0 0,0
14.11.2018 18:00:00 15,2 11,6 - - 18 10 - - SE 1003,8 50 0 0,0
14.11.2018 17:00:00 15,0 12,0 - - 18 10 - - SSE 1003,9 50 0 0,0
14.11.2018 16:00:00 13,6 11,6 - - 16 9 - - SSE 1003,5 50 0 0,2
14.11.2018 15:00:00 13,2 11,4 - - 21 11 - - SSE 1003,4 14 0 0,0
14.11.2018 14:00:00 13,7 11,1 - - 21 11 - - S 1003,3 12 0 0,2
14.11.2018 13:00:00 12,4 10,4 - - 11 6 - - N 1003,0 50 0 0,0
14.11.2018 12:00:00 11,6 9,8 - - 11 6 - - NE 1003,6 30 0 0,4
14.11.2018 11:00:00 11,3 9,4 - - 5 3 - - W 1003,8 35 0 0,0
14.11.2018 10:00:00 10,7 8,8 - - 9 5 - - NW 1004,1 45 0 0,0
14.11.2018 09:00:00 10,4 8,2 7,7 8,7 9 5 - - NNW 1004,4 50 0 0,0
14.11.2018 08:00:00 11,6 8,1 - - 5 3 - - SSE 1004,4 50 0 0,0
14.11.2018 07:00:00 11,5 8,0 - - 9 5 - - S 1004,7 50 0 0,0
14.11.2018 06:00:00 11,2 7,5 - - 9 5 - - SSE 1004,4 45 0 0,0
14.11.2018 05:00:00 11,9 7,8 - - 15 8 - - SSE 1004,9 35 0 0,0
14.11.2018 04:00:00 11,4 7,3 - - 13 7 - - SE 1004,9 50 0 0,0
14.11.2018 03:00:00 11,7 7,4 - - 31 17 48 26 SE 1005,4 50 0 0,0
14.11.2018 02:00:00 11,2 7,1 - - 18 10 - - SE 1005,9 50 0 0,0
14.11.2018 01:00:00 11,4 6,8 - - 26 14 46 25 SSE 1006,1 50 0 0,0
14.11.2018 00:00:00 10,8 6,2 - - 18 10 48 26 S 1006,5 50 - 0,0
13.11.2018 23:00:00 10,8 5,4 - - 28 15 46 25 SSE 1006,8 50 0 0,0
13.11.2018 22:00:00 10,0 4,3 - - 9 5 - - S 1006,8 50 0 0,0
13.11.2018 21:00:00 9,7 4,1 - - 15 8 - - SSE 1007,7 50 0 0,0
13.11.2018 20:00:00 9,4 3,7 - - 11 6 - - SE 1008,1 50 0 0,0
13.11.2018 19:00:00 8,9 4,5 - - 13 7 - - S 1008,5 50 0 0,0
13.11.2018 18:00:00 7,2 3,6 - - 8 4 - - SSW 1009,2 50 0 0,0
13.11.2018 17:00:00 7,5 4,0 - - 5 3 - - S 1009,0 50 0 0,0
13.11.2018 16:00:00 8,7 3,9 - - 5 3 - - SSW 1008,8 40 0 0,0
13.11.2018 15:00:00 9,1 4,9 - - 5 3 - - S 1008,5 35 12 0,0
13.11.2018 14:00:00 10,9 4,9 - - 13 7 - - SW 1007,9 40 42 0,0
13.11.2018 13:00:00 10,2 7,0 - - 21 11 - - W 1007,4 50 12 0,0
13.11.2018 12:00:00 9,2 7,9 - - 9 5 - - S 1006,6 45 12 0,0
13.11.2018 11:00:00 8,8 6,4 - - 13 7 - - SSW 1005,7 45 36 0,0
13.11.2018 10:00:00 6,7 6,7 - - 8 4 - - WSW 1004,9 50 6 0,0
13.11.2018 09:00:00 2,6 2,4 7,5 8,7 5 3 - - WSW 1004,3 45 0 0,0
13.11.2018 08:00:00 2,6 2,6 - - 4 2 - - NE 1003,4 45 0 0,0
13.11.2018 07:00:00 2,2 1,9 - - 2 1 - - NE 1002,2 50 0 0,0
13.11.2018 06:00:00 3,7 3,5 - - 0 0 - - N 1001,3 45 0 0,0
13.11.2018 05:00:00 3,4 3,1 - - 0 0 - - N 1000,7 50 0 0,0
13.11.2018 04:00:00 2,8 2,3 - - 2 1 - - SSE 1000,1 45 0 0,0
13.11.2018 03:00:00 4,5 3,9 - - 2 1 - - SE 999,4 50 0 0,0
13.11.2018 02:00:00 5,4 4,8 - - 4 2 - - W 999,0 50 0 0,0
13.11.2018 01:00:00 4,8 3,9 - - 5 3 - - WSW 998,5 50 0 0,2
13.11.2018 00:00:00 7,1 5,6 - - 4 2 - - SW 998,3 50 - 0,0
12.11.2018 23:00:00 6,3 4,9 - - 9 5 - - WSW 998,1 50 0 0,0
12.11.2018 22:00:00 7,0 5,3 - - 4 2 - - WNW 997,7 35 0 0,0
12.11.2018 21:00:00 7,3 5,1 - - 4 2 - - NE 997,5 50 0 0,0
12.11.2018 20:00:00 7,6 5,6 - - 4 2 - - W 997,3 40 0 0,0
12.11.2018 19:00:00 7,0 4,9 - - 5 3 - - NNW 997,2 50 0 0,0
12.11.2018 18:00:00 8,3 5,0 - - 4 2 - - SSE 997,0 50 0 0,0
12.11.2018 17:00:00 7,5 4,6 - - 4 2 - - ESE 996,7 45 0 0,0
12.11.2018 16:00:00 9,2 5,5 - - 9 5 - - E 996,4 50 0 0,0
12.11.2018 15:00:00 9,1 5,8 - - 8 4 - - NE 996,1 40 0 0,0
12.11.2018 14:00:00 9,9 5,6 - - 5 3 - - SSW 996,0 50 0 0,0
12.11.2018 13:00:00 10,0 5,4 - - 9 5 - - S 995,9 50 0 0,0
12.11.2018 12:00:00 9,8 5,7 - - 9 5 - - SSW 996,1 50 0 0,0
12.11.2018 11:00:00 9,3 5,4 - - 16 9 - - SSE 995,6 45 0 0,0
12.11.2018 10:00:00 6,1 5,3 - - 9 5 - - NW 995,6 50 0 0,0
12.11.2018 09:00:00 4,5 3,8 7,7 8,7 8 4 - - WNW 995,6 50 0 0,0
12.11.2018 08:00:00 5,0 3,8 - - 11 6 - - NW 995,4 50 0 0,0
12.11.2018 07:00:00 5,4 4,4 - - 8 4 - - NNW 995,0 50 0 0,0
12.11.2018 06:00:00 4,4 3,5 - - 9 5 - - WNW 994,7 45 0 0,0
12.11.2018 05:00:00 3,9 3,4 - - 8 4 - - NW 994,8 50 0 0,2
12.11.2018 04:00:00 2,8 2,3 - - 5 3 - - NW 994,6 40 0 0,0
12.11.2018 03:00:00 1,7 1,2 - - 8 4 - - NW 994,5 50 0 0,0
12.11.2018 02:00:00 1,3 1,1 - - 9 5 - - NW 994,5 50 0 0,0
12.11.2018 01:00:00 0,6 0,4 - - 4 2 - - SE 994,6 50 0 0,0
12.11.2018 00:00:00 1,8 1,6 - - 4 2 - - NW 994,4 40 - 0,0
11.11.2018 23:00:00 0,0 -0,3 - - 2 1 - - E 994,3 16 0 0,0
11.11.2018 22:00:00 1,7 1,3 - - 4 2 - - SSW 993,8 9 0 0,0
11.11.2018 21:00:00 3,3 2,9 - - 5 3 - - WNW 993,1 45 0 0,0
11.11.2018 20:00:00 4,7 4,1 - - 8 4 - - NNW 992,9 50 0 0,0
11.11.2018 19:00:00 5,4 3,9 - - 8 4 - - NNW 992,4 28 0 0,0
11.11.2018 18:00:00 5,9 4,1 - - 4 2 - - WSW 992,0 40 0 0,0
11.11.2018 17:00:00 5,7 3,7 - - 9 5 - - NNW 991,5 50 0 0,0
11.11.2018 16:00:00 6,3 3,7 - - 8 4 - - WNW 990,7 50 0 0,0
11.11.2018 15:00:00 8,2 4,4 - - 4 2 - - WNW 990,4 45 18 0,0
11.11.2018 14:00:00 7,3 5,1 - - 8 4 - - WNW 990,5 50 18 0,0
11.11.2018 13:00:00 8,3 5,6 - - 4 2 - - S 990,2 50 60 0,0
11.11.2018 12:00:00 5,6 4,4 - - 2 1 - - ENE 990,7 40 60 0,0
11.11.2018 11:00:00 3,1 3,1 - - 5 3 - - WNW 990,7 40 54 0,0
11.11.2018 10:00:00 0,7 0,6 - - 2 1 - - WSW 990,6 3,1 30 0,0
11.11.2018 09:00:00 -1,5 -1,8 8,0 8,9 4 2 - - NW 990,5 50 0 0,0
11.11.2018 08:00:00 -1,2 -1,4 - - 2 1 - - SE 990,0 40 0 0,0
11.11.2018 07:00:00 -0,9 -1,3 - - 2 1 - - N 989,3 50 0 0,0
11.11.2018 06:00:00 0,5 0,1 - - 2 1 - - E 988,8 50 0 0,0
11.11.2018 05:00:00 0,9 0,3 - - 4 2 - - NNW 988,4 50 0 0,0
11.11.2018 04:00:00 3,6 3,1 - - 5 3 - - SE 988,0 50 0 0,2
11.11.2018 03:00:00 4,5 4,0 - - 2 1 - - NW 987,9 21 0 0,0
11.11.2018 02:00:00 5,7 5,2 - - 9 5 - - WSW 987,8 35 0 0,2
11.11.2018 01:00:00 5,5 5,1 - - 9 5 - - W 987,9 10 0 4,6
11.11.2018 00:00:00 5,5 4,2 - - 4 2 - - W 988,5 7 - 2,0
10.11.2018 23:00:00 8,9 4,0 - - 15 8 - - ESE 988,5 50 0 0,0
10.11.2018 22:00:00 9,0 3,8 - - 22 12 - - ESE 988,5 50 0 0,0
10.11.2018 21:00:00 8,1 3,5 - - 13 7 - - SE 988,6 50 0 0,0
10.11.2018 20:00:00 6,9 2,5 - - 9 5 - - NE 988,5 50 0 0,0
10.11.2018 19:00:00 7,0 1,9 - - 8 4 - - SSW 987,9 45 0 0,0
10.11.2018 18:00:00 6,9 1,7 - - 5 3 - - SSE 987,6 45 0 0,0
10.11.2018 17:00:00 5,9 2,2 - - 4 2 - - W 986,9 50 0 0,0
10.11.2018 16:00:00 8,9 2,8 - - 8 4 - - ESE 985,9 45 6 0,0
10.11.2018 15:00:00 10,3 3,8 - - 11 6 - - SE 984,8 40 24 0,0
10.11.2018 14:00:00 10,5 4,8 - - 5 3 - - ESE 984,2 50 24 0,0
10.11.2018 13:00:00 9,7 4,2 - - 11 6 - - S 983,5 50 24 0,0
10.11.2018 12:00:00 10,0 5,4 - - 18 10 - - SSE 983,0 45 48 0,0
10.11.2018 11:00:00 10,2 4,8 - - 11 6 - - SSE 982,5 50 36 0,0
10.11.2018 10:00:00 9,3 5,3 - - 5 3 - - N 982,1 30 6 0,0

tt = temperature
td = dewpoint
tt -20cm = temperature -20cm
tt -100cm = temperature -100cm
ff = wind speed
fx = gusts
dd = wind direction
ppp = reduced air pressure
vv = visibility
sd = sunshine duration
rr = precipitation

Next stations